KQA490 HKJK-HTZA

Flight info

Callsign KQA490
Flight time 0h 54m
Altitude 37000
Route ATUDU1D GABSO UT913 DUNDO DCT
Aircraft E190/M-SDE3GILORVW/S

Departure

Time 2026-05-09 05:09
Airport Jomo Kenyatta International Airport (HKJK)

Arrival

Time 2026-05-09 06:04
Airport Abeid Amani Karume International Airport (HTZA)
Time Latitude Longitude Altitude Speed Heading
2026-05-09 04:53 -1.33152 36.92322 5333 ft 0 kts 61°
2026-05-09 05:00 -1.33158 36.92310 5339 ft 2 kts 61°
2026-05-09 05:00 -1.33164 36.92301 5338 ft 2 kts 60°
2026-05-09 05:01 -1.33175 36.92282 5335 ft 2 kts 57°
2026-05-09 05:01 -1.33199 36.92261 5335 ft 2 kts 332°
2026-05-09 05:01 -1.33203 36.92263 5335 ft 1 kts 324°
2026-05-09 05:02 -1.33205 36.92264 5337 ft 0 kts 326°
2026-05-09 05:03 -1.33196 36.92259 5336 ft 4 kts 329°
2026-05-09 05:03 -1.33151 36.92237 5334 ft 10 kts 338°
2026-05-09 05:03 -1.33076 36.92220 5334 ft 12 kts 353°
2026-05-09 05:04 -1.33022 36.92220 5333 ft 12 kts
2026-05-09 05:04 -1.32922 36.92249 5336 ft 3 kts 23°
2026-05-09 05:04 -1.32898 36.92258 5335 ft 5 kts 16°
2026-05-09 05:04 -1.32847 36.92246 5333 ft 10 kts 326°
2026-05-09 05:05 -1.32793 36.92205 5334 ft 10 kts 310°
2026-05-09 05:05 -1.32799 36.92143 5333 ft 9 kts 237°
2026-05-09 05:05 -1.32836 36.92092 5338 ft 9 kts 233°
2026-05-09 05:05 -1.32860 36.92058 5335 ft 9 kts 235°
2026-05-09 05:06 -1.32897 36.92005 5337 ft 10 kts 236°
2026-05-09 05:06 -1.32945 36.91940 5337 ft 13 kts 232°
2026-05-09 05:06 -1.32979 36.91897 5340 ft 1 kts 232°
2026-05-09 05:06 -1.32994 36.91875 5337 ft 7 kts 240°
2026-05-09 05:07 -1.32988 36.91821 5338 ft 8 kts 309°
2026-05-09 05:07 -1.32941 36.91783 5341 ft 9 kts 323°
2026-05-09 05:07 -1.32888 36.91745 5338 ft 10 kts 324°
2026-05-09 05:07 -1.32846 36.91715 5342 ft 3 kts 324°
2026-05-09 05:08 -1.32824 36.91699 5339 ft 4 kts 324°
2026-05-09 05:08 -1.32789 36.91675 5337 ft 9 kts 324°
2026-05-09 05:08 -1.32733 36.91680 5339 ft 9 kts 43°
2026-05-09 05:08 -1.32717 36.91702 5336 ft 8 kts 54°
2026-05-09 05:09 -1.32563 36.91913 5334 ft 72 kts 54°
2026-05-09 05:09 -1.32132 36.92496 5324 ft 135 kts 53°
2026-05-09 05:09 -1.31472 36.93402 5397 ft 182 kts 54°
2026-05-09 05:09 -1.30705 36.94469 6201 ft 193 kts 55°
2026-05-09 05:10 -1.29909 36.95604 6991 ft 212 kts 56°
2026-05-09 05:10 -1.29026 36.96869 7675 ft 233 kts 56°
2026-05-09 05:10 -1.28061 36.98255 8329 ft 256 kts 56°
2026-05-09 05:10 -1.26978 36.99813 8819 ft 290 kts 56°
2026-05-09 05:11 -1.25861 37.01422 9294 ft 281 kts 56°
2026-05-09 05:11 -1.24715 37.03094 9704 ft 297 kts 59°
2026-05-09 05:11 -1.24014 37.05070 10084 ft 310 kts 85°
2026-05-09 05:11 -1.24226 37.07229 10668 ft 320 kts 110°
2026-05-09 05:12 -1.25251 37.09184 11448 ft 322 kts 122°
2026-05-09 05:12 -1.26416 37.11124 12226 ft 326 kts 120°
2026-05-09 05:12 -1.27425 37.13158 13007 ft 329 kts 113°
2026-05-09 05:12 -1.28527 37.15171 13755 ft 333 kts 131°
2026-05-09 05:13 -1.30358 37.16581 14481 ft 336 kts 156°
2026-05-09 05:13 -1.32619 37.17162 15206 ft 339 kts 172°
2026-05-09 05:13 -1.34214 37.17351 15691 ft 342 kts 174°
2026-05-09 05:13 -1.37385 37.17646 16600 ft 348 kts 175°
2026-05-09 05:14 -1.39807 37.17849 17233 ft 352 kts 175°
2026-05-09 05:14 -1.42261 37.18050 17854 ft 355 kts 175°
2026-05-09 05:14 -1.44726 37.18364 18445 ft 359 kts 170°
2026-05-09 05:14 -1.47201 37.18787 18961 ft 363 kts 171°
2026-05-09 05:15 -1.49702 37.19232 19473 ft 366 kts 170°
2026-05-09 05:15 -1.52214 37.19687 19978 ft 369 kts 170°
2026-05-09 05:15 -1.54751 37.20146 20469 ft 372 kts 170°
2026-05-09 05:15 -1.57303 37.20608 20969 ft 375 kts 170°
2026-05-09 05:16 -1.59879 37.21074 21453 ft 378 kts 170°
2026-05-09 05:16 -1.62443 37.21536 21901 ft 381 kts 170°
2026-05-09 05:16 -1.65091 37.22014 22350 ft 384 kts 170°
2026-05-09 05:16 -1.67726 37.22489 22778 ft 386 kts 170°
2026-05-09 05:17 -1.70347 37.22961 23199 ft 389 kts 170°
2026-05-09 05:17 -1.73030 37.23445 23599 ft 392 kts 170°
2026-05-09 05:17 -1.75717 37.23930 23956 ft 394 kts 170°
2026-05-09 05:17 -1.78426 37.24418 24280 ft 396 kts 169°
2026-05-09 05:18 -1.81150 37.24909 24603 ft 398 kts 169°
2026-05-09 05:18 -1.83885 37.25402 24928 ft 400 kts 169°
2026-05-09 05:18 -1.86631 37.25897 25236 ft 402 kts 169°
2026-05-09 05:18 -1.89403 37.26396 25542 ft 404 kts 169°
2026-05-09 05:19 -1.91228 37.26726 25740 ft 405 kts 169°
2026-05-09 05:19 -1.94948 37.27397 26129 ft 408 kts 169°
2026-05-09 05:19 -1.97719 37.27896 26411 ft 410 kts 169°
2026-05-09 05:19 -2.00538 37.28404 26701 ft 411 kts 169°
2026-05-09 05:20 -2.03401 37.28920 26995 ft 413 kts 169°
2026-05-09 05:20 -2.05271 37.29258 27179 ft 414 kts 169°
2026-05-09 05:20 -2.09024 37.29934 27531 ft 417 kts 169°
2026-05-09 05:20 -2.11879 37.30449 27801 ft 419 kts 169°
2026-05-09 05:21 -2.14773 37.30971 28072 ft 420 kts 169°
2026-05-09 05:21 -2.17651 37.31490 28356 ft 422 kts 169°
2026-05-09 05:21 -2.20557 37.32014 28623 ft 424 kts 169°
2026-05-09 05:21 -2.23493 37.32543 28883 ft 426 kts 169°
2026-05-09 05:22 -2.26415 37.33070 29107 ft 428 kts 169°
2026-05-09 05:22 -2.29307 37.33592 29343 ft 429 kts 169°
2026-05-09 05:22 -2.32261 37.34125 29569 ft 431 kts 169°
2026-05-09 05:22 -2.35215 37.34657 29795 ft 433 kts 169°
2026-05-09 05:23 -2.38216 37.35200 29826 ft 439 kts 168°
2026-05-09 05:23 -2.44275 37.36292 30184 ft 443 kts 169°
2026-05-09 05:23 -2.47308 37.36839 30414 ft 443 kts 169°
2026-05-09 05:24 -2.50331 37.37384 30653 ft 442 kts 168°
2026-05-09 05:24 -2.53307 37.38129 30889 ft 441 kts 160°
2026-05-09 05:24 -2.56158 37.39269 31146 ft 439 kts 155°
2026-05-09 05:24 -2.58832 37.40688 31390 ft 438 kts 148°
2026-05-09 05:25 -2.61474 37.42260 31630 ft 437 kts 148°
2026-05-09 05:25 -2.64070 37.43836 31879 ft 437 kts 148°
2026-05-09 05:25 -2.69256 37.46996 32386 ft 435 kts 148°
2026-05-09 05:26 -2.71841 37.48574 32639 ft 434 kts 148°
2026-05-09 05:26 -2.74383 37.50124 32873 ft 434 kts 148°
2026-05-09 05:26 -2.76958 37.51695 33121 ft 433 kts 148°
2026-05-09 05:26 -2.79533 37.53266 33390 ft 432 kts 148°
2026-05-09 05:27 -2.82091 37.54816 33628 ft 431 kts 149°
2026-05-09 05:27 -2.84687 37.56342 33863 ft 430 kts 146°
2026-05-09 05:27 -2.87213 37.57942 34106 ft 430 kts 148°
2026-05-09 05:27 -2.89762 37.59488 34312 ft 429 kts 148°
2026-05-09 05:28 -2.92321 37.61042 34513 ft 428 kts 148°
2026-05-09 05:28 -2.94864 37.62583 34693 ft 428 kts 148°
2026-05-09 05:28 -2.97412 37.64128 34886 ft 428 kts 148°
2026-05-09 05:28 -2.99949 37.65665 35071 ft 428 kts 148°
2026-05-09 05:29 -3.02502 37.67213 35264 ft 427 kts 148°
2026-05-09 05:29 -3.05035 37.68749 35451 ft 427 kts 148°
2026-05-09 05:29 -3.07588 37.70297 35644 ft 427 kts 148°
2026-05-09 05:29 -3.10123 37.71835 35826 ft 426 kts 148°
2026-05-09 05:30 -3.12649 37.73366 36024 ft 426 kts 148°
2026-05-09 05:30 -3.15198 37.74912 36210 ft 425 kts 148°
2026-05-09 05:30 -3.17728 37.76447 36387 ft 425 kts 148°
2026-05-09 05:30 -3.20257 37.77981 36564 ft 425 kts 148°
2026-05-09 05:31 -3.22747 37.79492 36743 ft 425 kts 148°
2026-05-09 05:31 -3.25274 37.81025 36929 ft 425 kts 148°
2026-05-09 05:31 -3.27795 37.82553 37033 ft 422 kts 148°
2026-05-09 05:31 -3.30313 37.84083 37082 ft 422 kts 148°
2026-05-09 05:32 -3.35370 37.87151 37117 ft 428 kts 148°
2026-05-09 05:32 -3.40447 37.90231 37099 ft 426 kts 148°
2026-05-09 05:33 -3.45532 37.93318 37110 ft 427 kts 148°
2026-05-09 05:33 -3.50613 37.96403 37101 ft 427 kts 148°
2026-05-09 05:34 -3.55693 37.99487 37101 ft 428 kts 148°
2026-05-09 05:34 -3.60788 38.02575 37103 ft 428 kts 148°
2026-05-09 05:35 -3.65857 38.05700 37094 ft 427 kts 148°
2026-05-09 05:35 -3.70914 38.08819 37096 ft 427 kts 148°
2026-05-09 05:36 -3.75977 38.11941 37093 ft 427 kts 148°
2026-05-09 05:36 -3.81034 38.15059 37091 ft 426 kts 148°
2026-05-09 05:37 -3.86061 38.18160 37088 ft 427 kts 147°
2026-05-09 05:37 -3.91119 38.21279 37085 ft 427 kts 148°
2026-05-09 05:38 -3.96178 38.24399 37084 ft 427 kts 147°
2026-05-09 05:38 -4.01225 38.27522 37078 ft 426 kts 147°
2026-05-09 05:39 -4.06278 38.30621 37078 ft 426 kts 148°
2026-05-09 05:39 -4.11347 38.33719 37076 ft 426 kts 148°
2026-05-09 05:40 -4.16417 38.36817 37073 ft 426 kts 148°
2026-05-09 05:40 -4.21447 38.39893 37067 ft 426 kts 148°
2026-05-09 05:41 -4.26499 38.42982 37074 ft 426 kts 148°
2026-05-09 05:41 -4.31560 38.46077 37067 ft 426 kts 147°
2026-05-09 05:42 -4.36620 38.49172 37069 ft 426 kts 147°
2026-05-09 05:42 -4.41688 38.52273 37069 ft 426 kts 147°
2026-05-09 05:43 -4.46735 38.55362 37065 ft 426 kts 147°
2026-05-09 05:43 -4.51772 38.58445 37069 ft 426 kts 147°
2026-05-09 05:44 -4.56838 38.61546 37065 ft 426 kts 147°
2026-05-09 05:44 -4.61891 38.64639 37061 ft 426 kts 147°
2026-05-09 05:45 -4.66941 38.67731 37055 ft 426 kts 147°
2026-05-09 05:45 -4.71995 38.70827 37061 ft 426 kts 147°
2026-05-09 05:46 -4.73671 38.71853 36831 ft 425 kts 147°
2026-05-09 05:46 -4.77068 38.73935 35699 ft 429 kts 148°
2026-05-09 05:46 -4.79608 38.75490 34943 ft 429 kts 147°
2026-05-09 05:46 -4.82153 38.77050 34338 ft 426 kts 148°
2026-05-09 05:47 -4.84716 38.78501 33856 ft 421 kts 154°
2026-05-09 05:47 -4.87425 38.79521 33356 ft 427 kts 161°
2026-05-09 05:47 -4.90325 38.80423 32849 ft 433 kts 160°
2026-05-09 05:47 -4.93172 38.81428 32357 ft 434 kts 159°
2026-05-09 05:48 -4.95977 38.82416 31873 ft 434 kts 159°
2026-05-09 05:48 -4.98825 38.83432 30902 ft 438 kts 159°
2026-05-09 05:48 -5.01721 38.84464 29778 ft 444 kts 159°
2026-05-09 05:48 -5.03664 38.85158 29102 ft 445 kts 159°
2026-05-09 05:49 -5.07528 38.86533 28049 ft 437 kts 159°
2026-05-09 05:49 -5.10378 38.87549 27275 ft 432 kts 160°
2026-05-09 05:49 -5.13203 38.88555 26545 ft 427 kts 160°
2026-05-09 05:49 -5.15978 38.89544 25823 ft 423 kts 160°
2026-05-09 05:50 -5.18737 38.90526 25125 ft 418 kts 160°
2026-05-09 05:50 -5.21458 38.91497 24447 ft 414 kts 160°
2026-05-09 05:50 -5.24168 38.92461 23786 ft 409 kts 160°
2026-05-09 05:50 -5.26837 38.93412 23043 ft 405 kts 160°
2026-05-09 05:51 -5.29475 38.94352 22332 ft 399 kts 160°
2026-05-09 05:51 -5.32076 38.95279 21649 ft 394 kts 160°
2026-05-09 05:51 -5.34647 38.96196 20969 ft 389 kts 160°
2026-05-09 05:51 -5.37185 38.97100 20307 ft 384 kts 160°
2026-05-09 05:52 -5.39690 38.97993 19669 ft 380 kts 160°
2026-05-09 05:52 -5.42128 38.98863 19061 ft 375 kts 160°
2026-05-09 05:52 -5.44579 38.99738 18431 ft 371 kts 160°
2026-05-09 05:52 -5.46993 39.00597 17763 ft 367 kts 160°
2026-05-09 05:53 -5.49390 39.01452 17089 ft 362 kts 160°
2026-05-09 05:53 -5.51753 39.02294 16426 ft 358 kts 160°
2026-05-09 05:53 -5.53337 39.02860 15995 ft 355 kts 160°
2026-05-09 05:53 -5.56403 39.03953 15169 ft 351 kts 160°
2026-05-09 05:54 -5.57920 39.04494 14768 ft 348 kts 160°
2026-05-09 05:54 -5.60956 39.05577 13980 ft 344 kts 160°
2026-05-09 05:54 -5.62448 39.06110 13563 ft 341 kts 160°
2026-05-09 05:54 -5.64668 39.06900 12927 ft 338 kts 160°
2026-05-09 05:55 -5.66876 39.07689 12305 ft 334 kts 160°
2026-05-09 05:55 -5.69050 39.08464 11712 ft 330 kts 159°
2026-05-09 05:55 -5.71191 39.09228 11278 ft 322 kts 159°
2026-05-09 05:55 -5.73256 39.09966 11027 ft 309 kts 159°
2026-05-09 05:56 -5.75241 39.10674 10775 ft 298 kts 159°
2026-05-09 05:56 -5.77162 39.11360 10495 ft 288 kts 159°
2026-05-09 05:56 -5.79040 39.12031 10102 ft 285 kts 159°
2026-05-09 05:56 -5.80899 39.12694 9678 ft 283 kts 159°
2026-05-09 05:57 -5.82742 39.13356 9240 ft 280 kts 159°
2026-05-09 05:57 -5.84576 39.14009 8780 ft 279 kts 159°
2026-05-09 05:57 -5.86397 39.14658 8339 ft 277 kts 159°
2026-05-09 05:57 -5.88210 39.15306 7921 ft 275 kts 160°
2026-05-09 05:58 -5.90009 39.15948 7498 ft 273 kts 160°
2026-05-09 05:58 -5.91793 39.16584 7064 ft 274 kts 160°
2026-05-09 05:58 -5.93627 39.17241 6494 ft 278 kts 160°
2026-05-09 05:58 -5.95422 39.17880 5900 ft 275 kts 160°
2026-05-09 05:59 -5.97194 39.18515 5300 ft 266 kts 160°
2026-05-09 05:59 -5.98891 39.19119 4704 ft 253 kts 160°
2026-05-09 05:59 -6.00508 39.19695 4277 ft 235 kts 161°
2026-05-09 05:59 -6.01997 39.20144 4055 ft 215 kts 165°
2026-05-09 06:00 -6.03385 39.20494 3807 ft 197 kts 167°
2026-05-09 06:00 -6.04684 39.20706 3496 ft 184 kts 172°
2026-05-09 06:00 -6.05944 39.20853 3072 ft 182 kts 173°
2026-05-09 06:00 -6.07206 39.20981 2679 ft 182 kts 174°
2026-05-09 06:01 -6.08463 39.21112 2270 ft 181 kts 174°
2026-05-09 06:01 -6.09688 39.21237 2073 ft 174 kts 174°
2026-05-09 06:01 -6.10890 39.21364 2020 ft 175 kts 175°
2026-05-09 06:01 -6.12089 39.21482 2033 ft 167 kts 175°
2026-05-09 06:02 -6.13211 39.21590 2114 ft 157 kts 174°
2026-05-09 06:02 -6.14246 39.21693 2143 ft 142 kts 174°
2026-05-09 06:02 -6.15210 39.21778 1992 ft 144 kts 174°
2026-05-09 06:02 -6.16275 39.21878 1454 ft 165 kts 174°
2026-05-09 06:03 -6.17467 39.22016 840 ft 176 kts 174°
2026-05-09 06:03 -6.18653 39.22127 494 ft 166 kts 175°
2026-05-09 06:03 -6.19752 39.22241 274 ft 153 kts 176°
2026-05-09 06:03 -6.20759 39.22348 119 ft 136 kts 175°
2026-05-09 06:04 -6.21607 39.22429 60 ft 114 kts 177°
2026-05-09 06:04 -6.22229 39.22493 51 ft 68 kts 174°
2026-05-09 06:04 -6.22609 39.22531 55 ft 47 kts 174°
2026-05-09 06:04 -6.22846 39.22555 52 ft 26 kts 174°
2026-05-09 06:05 -6.22980 39.22550 53 ft 12 kts 223°
2026-05-09 06:05 -6.22994 39.22475 55 ft 14 kts 264°
2026-05-09 06:05 -6.22975 39.22399 54 ft 12 kts 333°
2026-05-09 06:05 -6.22867 39.22387 53 ft 17 kts 354°
2026-05-09 06:06 -6.22743 39.22373 56 ft 19 kts 354°
2026-05-09 06:06 -6.22612 39.22360 56 ft 20 kts 354°
2026-05-09 06:06 -6.22479 39.22347 57 ft 18 kts 354°
2026-05-09 06:06 -6.22351 39.22334 54 ft 19 kts 354°
2026-05-09 06:07 -6.22229 39.22321 51 ft 8 kts 349°
2026-05-09 06:07 -6.22214 39.22274 58 ft 5 kts 266°
2026-05-09 06:07 -6.22217 39.22243 58 ft 4 kts 265°
2026-05-09 06:07 -6.22217 39.22239 58 ft 0 kts 265°